Home > Weather > Lord Howe Island > Past weeks

Flag for Australia Past Weather in Lord Howe Island, Lord Howe Island, Australia — Yesterday and Last 2 Weeks

Now
63 °F

Mild.


Feels Like: 63 °F
Forecast: 61 / 65 °F
Wind: 9 mph from West

Location: Lord Howe Island

Current Time: Jun 27, 2016 at 12:37:04 AM

Latest Report: Jun 27, 2016 at 12:00 AM


Visibility: N/A

Pressure: 30.02 "Hg

Humidity: 64%

Dew Point: 51 °F

Location of Lord Howe IslandLocation

Past Weather in Lord Howe Island — Graph

°F

Lord Howe Island Temperature Yesterday

Maximum temperature yesterday: 64 °F (at 10:30 AM)
Minimum temperature yesterday: 58 °F (at 9:00 PM)
Average temperature yesterday: 61 °F

High & Low Weather Summary for the Past Weeks

 TemperatureHumidityPressure
High71 °F (Jun 24, 12:00 PM)100% (Jun 22, 9:00 PM)30.62 "Hg (Jun 22, 9:00 PM)
Low47 °F (Jun 17, 6:00 AM)41% (Jun 12, 1:30 PM)29.61 "Hg (Jun 24, 9:00 PM)
Average64 °F68%30.09 "Hg
* Reported Jun 11 10:30 PM — Jun 26 10:30 PM, Lord Howe Island, Weather by CustomWeather, © 2016

Note: Actual official high and low records may vary slightly from our data, if they occured in-between our weather recording intervals... More about our weather records

Advertising

Lord Howe Island Weather History for the Previous 24 Hours

Scroll right to see more
 ConditionsComfort  
Time TempWeatherWind HumidityBarometerVisibility
10:30 PM
Sun, Jun 26
62 °FMild.8 mph68%30.02 "HgN/A
9:00 PM58 °FCool.No wind83%30.02 "HgN/A
7:30 PM61 °FCool.10 mph78%30.02 "HgN/A
6:00 PM61 °FOvercast.17 mph76%30.00 "HgN/A
4:30 PM61 °FCool.12 mph73%29.98 "HgN/A
3:00 PM61 °FPartly sunny.14 mph75%29.98 "HgN/A
1:30 PM64 °FMild.17 mph64%29.97 "HgN/A
12:00 PM63 °FOvercast.20 mph63%29.99 "HgN/A
10:30 AM64 °FMild.20 mph61%30.01 "HgN/A
9:00 AM62 °FPartly sunny.16 mph67%30.01 "HgN/A
7:30 AM62 °FCool.17 mph63%29.98 "HgN/A
5:30 AM60 °FPassing clouds.13 mph74%29.94 "Hg6 mi
4:30 AM60 °FCool.15 mph72%29.93 "HgN/A
3:00 AM60 °FPassing clouds.17 mph69%29.91 "HgN/A
1:30 AM60 °FCool.18 mph69%29.91 "HgN/A
12:00 AM61 °FPassing clouds.18 mph68%29.91 "HgN/A
Weather by CustomWeather, © 2016

See weather overviewHow to use our weather pages